Terminal Aerodrome Forecast
Issued by NWS Twin Cities, MN

Home | Current Version | Previous Version | Graphics & Text | Print | Product List | Glossary On
Versions: 1 2 3 4 5 6 7 8 9 10 11 12 13 14 15 16 17 18 19 20 21 22 23 24 25
000
FTUS43 KMPX 192339
TAFMSP
TAF
KMSP 192339Z 2000/2106 14012KT P6SM BKN250
     FM200200 14009KT P6SM OVC200 WS020/20045KT
     FM201200 14008KT P6SM SCT020 OVC050
     FM201500 16009KT 5SM SHRA BR VCTS BKN015CB
     FM202100 19010KT P6SM BKN020
     FM210000 25008KT P6SM BKN040
     FM210300 28008KT P6SM SCT040 SCT150=

USA.gov is the U.S. government's official web portal to all federal, state and local government web resources and services.